Temp
25 25 25 24 24 23 23 23 22 22 22 22 22 22 22 22 22 22 21 21 21 21 21 21 21 21 21 21 21 21 20 20 20 20 20 20 20 20 20 20 20 19 19 19 19 19 19 19 19 19 18 18 18 18 19 19 19 19 19 19 19 18 17 18 18 19 20 20 20 21 22 23 23 23 23 23 23 23 22 22 21 21 23 24 24
25 25 25 24 24 24 23 23 23 22 22 22 22 22 23 22 22 22 22 21 21 21 21 21 21 21 21 21 21 21 20 20 20 20 20 20 20 20 20 20 19 19 19 19 19 19 19 19 18 18 18 18 18 18 18 18 18 18 18 18 18 19 18 18 18 19 19 20 20 20 21 23 23 23 23 23 23 23 22 22 21 21 22 23 24
26 25 24 24 24 24 23 23 23 23 23 22 23 23 23 23 23 23 22 22 22 21 21 21 21 20 20 20 21 21 20 20 20 20 20 20 20 20 20 19 19 19 19 19 19 19 18 18 18 18 17 17 17 17 17 17 17 17 17 17 18 18 18 18 18 18 19 20 20 21 21 22 23 23 23 23 23 23 23 22 22 21 22 23 23
27 25 24 24 24 24 23 23 23 23 23 23 23 24 24 24 24 23 23 22 22 22 21 21 21 21 20 20 20 20 20 20 20 20 20 20 19 19 19 19 19 19 19 19 19 18 18 18 18 17 17 16 16 16 16 16 16 16 16 17 17 17 18 18 18 18 19 20 20 21 21 22 23 23 23 23 23 23 22 22 21 21 22 23 23
27 26 25 25 24 24 23 23 23 23 23 23 23 24 24 24 23 23 22 23 23 22 22 22 22 21 21 21 20 20 20 20 20 20 20 20 19 19 19 19 19 19 19 19 18 18 18 17 17 17 16 16 15 15 15 15 15 15 16 16 17 17 18 18 19 18 18 19 20 20 21 22 22 23 23 23 23 23 23 22 22 22 21 23 23
27 26 26 25 25 24 24 24 23 23 23 23 23 23 23 23 23 23 22 22 22 22 22 22 22 22 22 21 21 20 19 19 19 18 19 19 19 19 19 19 19 19 19 18 18 18 18 17 17 17 16 15 14 14 14 14 14 15 15 16 17 17 17 18 19 19 18 19 19 20 20 21 21 22 23 23 24 24 23 22 21 21 21 22 23
26 26 26 26 25 25 24 24 24 24 24 23 23 23 23 23 23 22 21 22 22 23 23 23 22 22 22 22 21 21 20 19 19 18 18 18 18 19 19 19 19 19 18 18 18 18 18 17 17 16 15 15 14 14 14 14 14 14 14 15 15 16 17 17 18 19 18 18 19 19 19 20 21 22 23 23 23 24 23 22 21 21 21 22 23
26 25 25 25 25 25 25 24 24 24 23 23 23 23 23 22 22 21 21 21 22 22 23 23 22 22 22 22 22 21 20 19 20 20 19 18 18 19 19 19 19 19 18 18 18 18 18 17 17 16 15 15 15 14 14 14 14 14 14 14 14 15 15 16 18 18 18 18 18 19 19 19 20 21 22 23 23 23 23 23 22 22 22 22 22
26 25 25 25 25 24 24 24 24 24 23 23 23 22 22 22 21 21 21 22 22 22 22 22 22 21 21 22 22 21 20 20 20 20 19 18 18 19 19 18 19 19 18 18 18 18 17 17 16 16 16 16 15 15 14 14 14 13 13 13 13 13 14 15 16 17 18 19 18 18 19 19 19 21 22 23 23 23 23 23 23 22 22 22 22
25 25 25 25 24 24 24 24 24 23 23 23 23 22 22 22 21 21 21 22 22 22 22 21 21 21 22 22 22 21 20 20 19 19 19 19 19 18 18 18 19 19 18 18 18 18 17 17 16 16 16 16 16 15 15 14 14 14 14 13 13 13 13 14 16 17 18 19 18 18 20 20 20 21 22 23 23 23 22 22 22 23 22 22 22
25 25 25 25 24 24 24 24 24 23 23 23 22 22 22 22 21 21 21 22 22 22 22 22 21 21 21 22 21 21 21 20 19 19 19 19 18 18 18 18 19 19 19 18 18 18 17 17 17 17 16 16 15 15 15 14 14 14 14 14 14 14 13 14 15 16 18 19 19 19 20 21 20 21 23 23 23 22 22 22 21 21 22 22 22
25 25 25 25 24 25 24 24 24 23 23 23 22 22 22 22 22 22 22 22 22 22 22 22 21 21 21 22 21 21 21 20 20 20 19 19 18 18 18 18 19 19 19 19 18 18 17 17 16 17 17 16 15 14 15 15 15 14 14 14 14 14 14 14 14 15 16 18 19 19 20 21 21 22 23 23 23 22 22 22 20 20 22 23 23
26 25 25 25 25 25 24 24 24 23 23 23 23 23 22 22 22 22 22 22 22 22 22 22 22 21 21 21 21 20 20 19 20 20 19 19 19 18 17 18 18 19 19 18 18 18 18 17 16 16 16 16 15 15 15 15 15 14 14 14 15 15 15 15 15 15 15 16 17 19 20 21 21 22 23 23 23 23 22 22 21 21 21 23 24
26 25 25 25 25 25 25 24 24 24 23 23 23 23 22 22 22 22 22 22 22 22 22 22 22 21 20 20 20 20 19 19 20 20 19 20 19 18 18 17 18 18 18 18 18 18 18 17 16 16 16 16 16 15 15 14 14 14 14 14 15 15 15 15 16 17 16 16 16 17 19 20 21 22 23 23 23 23 23 23 23 22 22 22 23
26 26 25 25 25 25 25 24 24 24 23 23 23 23 23 22 22 22 22 22 22 22 22 22 22 21 20 20 20 20 20 20 19 19 19 19 19 18 18 17 17 18 18 18 18 18 18 17 16 16 16 16 16 15 15 14 14 14 14 15 15 15 15 15 16 16 17 17 17 17 18 20 20 21 22 22 22 23 23 23 23 22 22 22 23
26 26 26 26 25 25 25 25 24 24 23 23 23 23 23 23 22 22 22 22 22 22 22 22 22 21 21 20 20 20 20 19 19 19 19 19 19 18 18 17 18 19 19 18 18 18 18 17 16 16 16 15 15 15 15 14 14 14 14 14 15 15 15 15 15 16 16 16 16 17 18 19 20 21 21 22 22 22 22 23 23 22 21 22 22
26 26 26 26 26 25 25 25 24 24 23 23 23 23 23 23 22 22 22 22 22 22 22 21 21 21 21 20 20 20 20 19 19 19 19 19 18 18 17 18 18 18 18 18 18 18 18 17 17 16 16 15 15 15 15 15 14 14 13 13 14 14 15 15 15 15 15 15 15 16 17 18 19 20 21 21 21 22 21 21 21 21 21 21 21
26 26 26 26 26 26 25 25 24 24 23 23 23 24 23 23 23 23 22 22 22 22 21 21 21 21 21 20 20 20 20 20 19 19 19 19 18 18 17 18 18 17 17 18 19 18 18 17 17 17 16 16 16 15 15 15 14 14 13 13 13 14 15 15 15 14 14 14 14 16 17 17 19 20 21 21 21 21 21 20 20 21 20 20 21
27 27 26 26 26 26 25 25 24 24 23 23 24 24 23 23 23 23 22 22 22 22 22 21 21 21 21 21 20 20 20 20 19 18 19 18 19 18 17 17 18 17 16 17 19 18 17 17 17 17 17 16 16 15 15 15 15 14 13 13 13 14 14 14 13 13 13 13 15 17 17 17 18 19 20 20 20 20 21 20 21 21 20 20 21
27 27 26 26 26 26 25 24 24 24 24 24 24 23 23 23 23 22 22 22 22 22 22 22 21 21 21 21 21 20 20 20 19 18 18 18 18 18 17 16 17 17 17 18 19 18 18 18 17 17 17 16 15 15 15 15 15 14 13 13 13 13 13 13 13 13 14 13 14 17 18 17 18 19 19 20 20 20 20 20 21 21 20 20 21
27 27 26 26 26 26 25 24 24 24 24 24 23 23 22 22 22 22 22 21 21 21 21 21 21 21 21 20 20 20 20 19 19 18 18 18 18 18 17 16 16 17 17 18 19 19 18 18 18 17 16 16 15 15 15 15 15 14 13 13 13 13 13 13 13 15 15 14 15 17 19 18 19 19 19 20 20 20 20 20 20 21 21 21 22
27 27 26 26 26 25 24 23 23 23 23 24 23 22 22 22 21 21 21 21 21 21 20 20 20 20 20 20 20 19 19 18 18 18 18 18 18 17 17 17 17 17 17 17 18 18 18 18 17 17 16 16 16 16 15 15 15 15 14 14 14 14 13 13 13 14 16 16 17 18 20 19 19 20 20 20 20 20 20 20 20 21 21 22 23
27 27 26 26 25 25 23 23 23 23 23 23 22 21 21 21 21 20 20 21 21 21 20 20 20 20 20 20 19 19 18 18 18 18 18 18 17 17 17 17 17 17 16 17 17 18 18 17 17 17 16 16 15 15 15 15 15 15 14 14 14 14 14 13 13 14 14 15 16 17 19 19 20 20 19 20 20 21 20 20 21 21 21 22 22
27 26 26 25 25 24 23 23 23 22 23 22 22 21 22 21 20 20 20 21 21 20 20 20 20 20 20 20 19 18 18 18 18 18 18 17 17 17 17 16 17 17 17 17 17 17 17 17 17 16 16 16 15 15 15 15 15 15 15 15 14 14 13 13 13 13 13 14 14 15 16 17 18 19 19 20 21 21 21 20 21 21 21 21 21
26 26 25 24 23 23 22 22 21 22 22 22 22 22 21 21 21 20 20 21 20 20 20 20 20 19 20 19 19 18 18 18 17 17 17 17 16 17 16 16 16 17 17 17 18 18 17 17 17 16 16 16 15 15 15 15 15 15 15 14 14 14 13 13 13 13 13 13 14 14 14 15 16 17 19 19 20 20 20 20 21 21 20 20 20
24 24 23 23 23 23 22 21 21 21 22 22 22 22 21 21 21 20 20 20 21 20 20 19 17 17 16 16 17 18 18 17 17 16 16 16 16 16 16 16 17 17 17 18 18 17 17 17 17 16 16 16 15 15 15 15 14 14 14 14 13 13 13 13 13 13 13 13 13 13 14 14 14 16 17 18 19 19 20 20 20 20 20 20 20
23 23 23 23 23 23 22 22 22 22 22 21 21 22 21 21 21 21 20 20 20 19 18 17 16 16 15 15 16 17 18 17 16 15 15 14 15 15 15 16 17 17 17 17 17 17 17 17 17 17 16 16 16 15 14 14 14 13 13 13 12 13 13 13 13 13 13 13 13 13 13 14 14 14 15 16 17 18 19 19 19 19 20 20 20
23 23 23 23 22 22 22 21 21 21 21 20 20 21 21 21 21 20 19 19 18 18 18 17 16 16 16 15 15 16 17 17 15 13 12 13 14 14 14 14 15 16 16 16 17 17 17 17 17 17 17 16 16 15 14 13 12 12 11 11 11 12 13 13 13 13 13 13 13 13 13 13 13 13 14 14 14 16 17 18 18 19 19 19 19
23 23 23 23 22 21 21 21 21 20 20 20 20 20 20 20 20 19 17 17 16 16 16 17 16 16 16 15 15 16 16 15 13 11 10 11 12 12 13 13 14 14 15 15 16 16 16 17 17 17 16 16 15 14 14 13 12 12 11 10 10 10 11 11 11 11 12 13 13 13 13 13 13 13 14 14 13 14 15 16 16 18 19 19 19
23 23 23 23 23 22 21 21 21 21 20 21 20 19 18 18 18 17 16 15 15 14 15 15 15 15 15 15 14 14 13 12 11 10 10 11 11 12 12 12 13 14 14 15 16 16 16 17 16 15 15 15 14 14 14 13 13 12 11 10 10 10 10 10 10 10 11 12 13 13 13 13 13 13 13 14 14 14 14 14 14 15 16 16 16
22 23 23 23 22 22 21 21 21 21 21 21 20 19 18 16 15 15 14 14 13 13 13 13 13 14 14 13 12 12 11 12 11 11 11 10 11 11 12 12 13 13 14 15 16 16 15 15 14 14 14 13 13 13 13 13 13 12 11 10 10 9 9 10 10 10 10 11 12 12 13 13 13 13 13 13 14 14 14 14 14 14 14 14 14
22 23 23 22 22 21 21 21 21 21 21 20 20 20 19 17 15 13 12 12 12 12 12 12 12 12 12 12 12 11 11 11 11 11 11 10 10 11 12 12 13 13 14 14 14 14 13 13 13 12 12 12 12 11 11 12 12 12 11 11 10 9 9 9 10 10 11 11 11 11 12 12 13 13 13 13 13 14 14 14 14 14 13 13 13
22 22 22 22 21 21 21 21 20 20 20 20 19 19 19 19 17 14 11 11 11 11 11 12 12 12 12 11 11 11 11 11 11 11 10 10 11 12 12 12 12 13 13 13 13 12 12 12 12 11 11 11 11 11 10 10 11 11 11 11 10 9 9 9 10 11 11 11 11 11 11 12 12 13 13 13 13 13 14 14 14 14 14 13 13
21 22 22 21 21 21 20 20 20 20 20 20 19 19 18 18 18 16 13 12 12 11 11 11 11 11 11 11 11 10 10 10 11 11 11 11 12 12 12 12 12 13 13 13 12 12 11 11 11 10 10 10 10 10 10 10 10 10 10 10 10 10 9 9 10 11 11 11 11 11 11 12 12 12 13 13 13 13 13 13 13 14 14 14 14
21 21 21 20 20 21 20 20 20 20 20 19 19 19 18 17 17 16 15 14 13 13 11 11 11 11 11 10 10 10 10 11 11 11 11 12 12 13 13 13 13 13 13 12 11 11 10 10 9 9 9 9 9 9 10 10 9 9 9 10 10 10 9 9 9 10 11 11 11 11 11 11 12 12 12 13 13 13 13 13 13 13 13 13 14
21 21 20 20 20 20 20 20 19 19 19 18 17 17 17 16 16 15 15 14 14 14 12 11 11 11 11 11 10 10 11 11 11 11 11 11 12 13 13 13 13 12 11 11 10 10 9 8 8 8 8 8 8 8 8 8 8 8 9 9 9 9 9 9 9 9 9 10 11 11 11 11 11 12 12 13 13 13 13 14 13 13 13 14 14
20 20 20 19 19 20 19 19 18 17 17 17 16 16 15 15 15 15 15 14 14 14 14 13 12 12 12 11 11 11 11 11 11 11 11 11 11 12 12 11 11 10 9 9 9 9 8 8 8 7 7 7 7 7 7 7 7 7 8 8 8 8 8 8 8 8 9 9 9 10 10 11 11 11 11 12 13 13 13 13 14 14 14 14 14
19 19 18 18 19 19 19 18 17 16 16 16 15 15 15 14 14 14 14 13 13 13 14 14 13 12 12 11 10 11 12 12 12 12 12 11 11 11 11 10 10 9 9 8 8 8 8 8 8 8 8 7 7 7 7 7 7 7 7 8 8 8 8 8 7 8 8 9 9 9 9 10 11 11 11 11 12 12 12 13 13 14 14 14 14
19 18 18 18 18 19 18 17 16 15 15 15 15 15 15 15 14 13 13 13 13 13 13 13 12 11 9 9 9 11 12 12 12 12 12 11 11 11 10 10 9 9 9 8 8 9 9 9 9 8 8 8 8 8 8 7 7 7 7 7 8 8 8 7 7 7 8 8 8 9 9 10 11 11 11 11 11 12 12 12 13 13 13 14 14
18 18 17 17 18 18 17 16 16 16 15 15 14 14 14 14 14 13 13 13 13 13 13 12 11 9 8 8 9 10 11 12 11 11 11 11 10 10 9 9 9 9 9 8 8 9 10 10 9 8 8 7 8 8 8 8 8 8 8 8 7 7 7 7 7 7 7 7 8 9 9 10 10 11 11 11 11 12 12 12 12 12 13 14 14
18 17 16 16 17 17 16 16 15 15 14 14 13 13 13 13 13 13 13 13 14 13 12 12 10 9 7 7 8 9 10 10 10 10 11 10 10 9 9 8 8 8 8 8 8 9 9 9 8 8 7 7 7 8 8 8 8 8 8 8 7 7 7 7 6 6 6 6 7 8 9 10 10 11 11 11 12 12 12 11 11 11 12 13 14
17 17 16 16 16 16 15 15 14 13 13 13 13 13 12 12 13 13 13 14 15 14 12 11 10 8 7 7 8 9 9 9 9 10 10 9 9 9 9 8 7 7 8 8 9 9 9 9 8 8 7 7 7 7 7 7 7 8 8 7 7 7 6 6 6 6 6 6 6 7 8 9 10 10 10 11 12 12 12 12 11 11 11 12 13
16 16 15 15 14 14 14 13 13 13 12 12 12 12 12 12 13 13 14 14 14 14 12 11 9 9 8 7 8 9 9 9 9 9 9 9 9 9 9 8 8 7 7 8 8 8 8 9 8 8 8 7 7 7 7 7 7 7 7 7 7 6 6 6 6 5 5 6 6 7 7 9 9 10 10 11 11 11 11 12 11 11 11 11 12
15 15 14 14 13 13 13 13 13 13 13 12 12 12 12 13 13 13 14 14 14 14 13 11 10 10 9 8 8 9 9 8 8 8 9 9 9 9 9 9 8 8 7 7 7 7 8 8 8 8 8 7 7 7 7 6 6 6 6 6 6 5 5 5 5 5 5 6 6 7 8 8 9 9 9 10 11 11 11 11 11 11 11 11 11
15 14 14 14 13 13 13 13 13 13 13 13 13 13 13 13 13 13 13 14 13 13 12 12 11 10 9 9 9 9 9 8 8 8 9 9 10 10 10 10 10 9 8 8 7 7 7 8 8 8 7 7 7 7 6 6 6 5 5 4 4 4 4 3 3 4 5 5 6 8 8 8 9 9 9 9 10 11 11 11 11 11 10 10 10
16 15 15 14 14 14 14 14 14 14 14 14 14 14 14 13 13 13 13 13 12 12 11 11 10 9 9 9 9 10 10 9 9 9 9 8 9 10 10 10 10 9 8 8 8 7 7 7 7 7 7 7 6 6 6 6 5 5 4 3 3 3 4 4 3 3 4 5 6 7 8 8 9 9 9 9 9 10 10 10 10 10 10 10 10
16 16 16 16 15 15 15 15 14 14 14 14 14 14 14 14 13 12 12 12 11 11 12 12 11 10 10 11 11 10 10 10 10 10 10 9 9 10 10 9 9 9 8 8 8 7 7 7 7 7 6 6 6 6 5 5 5 4 3 3 3 3 4 4 4 3 4 4 6 7 8 8 9 9 8 9 9 9 10 10 10 10 10 10 10
16 16 16 16 15 15 15 14 14 13 13 14 13 13 13 13 12 12 11 11 11 12 13 13 12 11 11 11 11 11 11 11 11 11 11 10 10 9 8 8 8 8 8 8 7 7 7 7 7 7 6 6 6 6 5 5 4 3 2 3 3 3 4 5 4 4 4 5 5 7 8 8 8 8 8 8 9 9 9 9 9 10 10 10 10
15 15 15 15 15 15 14 14 14 13 14 14 14 13 14 14 13 12 11 11 11 12 13 13 12 11 11 11 11 11 11 11 11 11 10 10 9 9 8 8 8 8 8 8 7 7 7 6 6 6 6 6 6 5 5 4 3 2 2 2 3 3 3 4 4 4 4 5 5 6 7 8 8 8 8 8 8 9 9 9 9 10 10 10 10
15 16 16 15 15 15 15 15 14 14 15 15 14 14 14 14 14 13 12 12 12 12 12 12 12 11 11 11 11 11 11 11 10 10 10 10 9 9 8 8 8 8 8 8 7 7 7 7 6 6 6 6 6 5 4 3 2 2 2 2 3 3 3 4 4 4 4 5 5 6 7 7 8 8 8 8 8 8 8 9 9 10 10 10 10
16 16 16 15 16 15 15 15 15 15 15 15 14 15 15 15 14 14 13 12 11 12 12 12 12 12 11 11 11 10 10 10 10 10 10 9 9 9 8 8 8 8 8 7 7 7 7 7 6 6 6 6 5 5 4 2 2 2 2 2 2 2 3 3 4 4 4 4 5 6 6 7 7 7 7 7 7 8 8 9 9 10 10 10 10
Height
811 812 813 815 816 817 818 818 819 820 819 820 820 820 820 819 819 818 817 817 816 815 814 813 812 811 810 809 808 807 806 804 804 803 802 801 800 799 799 798 798 797 796 795 794 793 791 789 787 785 783 781 777 775 772 769 767 764 762 760 758 759 761 760 756 751 748 750 750 749 752 753 752 752 753 754 754 755 755 757 759 758 756 755 757
809 811 812 813 814 815 816 817 817 818 818 819 819 818 818 817 816 816 815 815 814 813 812 811 810 809 808 807 806 805 803 802 802 801 800 800 799 798 798 797 796 795 794 794 792 791 790 787 785 784 782 780 776 773 770 767 765 762 759 757 755 754 755 754 753 749 745 746 747 746 747 749 749 749 750 751 752 753 753 754 756 756 753 752 753
806 809 810 811 813 814 815 815 816 816 816 817 817 816 815 814 814 813 813 813 812 811 811 809 808 807 806 805 804 802 801 800 799 799 799 798 797 796 796 795 795 794 793 792 791 790 788 786 784 782 780 778 775 772 769 765 762 759 757 755 752 750 749 748 748 746 742 742 743 742 743 745 744 745 746 747 748 749 749 750 753 753 751 749 750
804 806 808 809 811 812 813 813 814 814 814 814 814 813 812 811 811 811 812 811 810 809 809 807 806 805 804 803 802 801 800 798 798 797 797 796 796 795 794 793 793 792 791 790 789 788 787 784 783 781 779 777 774 771 767 764 760 757 753 751 748 746 744 743 742 742 740 738 738 738 739 740 739 740 742 742 743 745 745 747 749 750 748 747 747
802 804 805 807 808 810 811 812 812 812 812 812 812 811 810 810 810 810 810 809 808 807 806 805 804 803 801 801 800 799 798 798 798 797 796 795 794 793 792 791 791 790 789 788 787 786 785 783 781 779 777 775 772 769 766 763 759 755 750 747 743 741 740 738 737 738 737 735 734 734 735 736 736 736 737 738 739 740 741 742 743 744 744 744 743
799 801 803 804 806 808 809 810 810 810 810 810 810 809 809 809 809 808 808 807 806 805 804 803 802 801 799 798 797 796 796 797 797 797 795 794 793 791 790 789 789 788 788 787 786 784 783 781 779 778 775 773 771 768 764 761 758 754 749 745 741 737 736 734 732 732 733 732 731 731 730 732 733 733 733 734 735 735 736 736 737 739 739 739 739
797 799 801 802 804 805 806 807 808 808 808 808 808 808 808 808 807 807 807 806 805 803 802 801 800 799 797 796 795 794 794 794 794 794 793 793 792 791 789 788 787 787 786 785 784 782 781 779 778 775 773 771 769 766 762 759 756 753 749 744 739 735 733 731 729 728 728 729 728 727 727 728 729 729 730 731 731 731 731 732 733 733 733 734 735
796 798 799 800 802 803 804 805 805 806 806 806 807 807 807 807 807 807 806 804 803 801 800 799 798 797 796 795 793 792 792 791 791 790 790 790 791 789 787 786 785 784 784 782 781 780 779 777 776 773 771 768 766 763 760 757 753 750 748 744 739 734 730 729 727 726 725 725 725 724 724 725 725 726 726 727 726 726 726 726 727 727 728 730 732
794 796 797 798 800 801 802 803 803 804 805 804 805 805 806 806 805 805 804 802 801 800 799 798 797 795 794 793 792 791 791 790 789 788 788 787 788 787 786 785 783 782 781 780 779 778 777 775 773 771 768 765 763 761 759 756 753 750 747 743 739 733 729 727 725 723 721 721 721 722 721 721 722 722 722 721 721 720 721 722 723 724 726 727 728
792 794 795 796 798 799 800 802 802 802 802 803 803 803 804 804 803 803 802 801 800 799 797 797 795 794 793 791 790 789 789 788 787 787 786 786 786 785 784 783 782 780 779 778 777 775 774 773 770 768 766 763 761 758 756 754 752 750 747 742 738 733 729 726 723 719 717 716 717 718 717 715 716 717 717 716 716 717 717 718 720 721 724 725 725
790 792 793 795 796 797 798 799 800 800 801 801 801 801 801 801 801 801 800 799 798 797 796 795 794 793 792 790 789 788 787 787 786 786 786 785 784 783 782 781 779 778 777 775 774 773 772 770 768 766 763 761 758 756 753 750 748 746 743 738 734 731 728 725 722 718 715 712 712 713 712 710 710 711 711 711 712 713 713 715 717 720 722 722 721
788 790 791 793 794 795 797 797 798 799 799 799 799 799 799 799 799 798 797 796 796 794 794 794 793 792 791 789 788 787 786 786 785 784 784 783 782 781 780 779 777 776 774 773 772 771 769 768 765 763 761 759 757 754 751 748 745 741 737 732 729 726 724 722 720 717 714 711 708 708 707 705 705 706 706 706 707 708 710 712 714 718 719 717 716
785 787 788 791 791 793 795 795 796 797 797 797 797 796 797 797 796 796 795 794 793 792 792 791 791 790 789 788 788 787 786 786 784 783 782 781 780 779 778 777 775 774 772 770 770 768 767 765 763 761 759 757 754 752 749 746 742 737 733 728 724 722 719 718 716 713 711 709 706 703 702 702 701 700 701 702 703 704 705 707 710 713 715 713 712
782 784 786 787 788 790 792 793 794 794 794 795 795 794 794 794 794 794 793 792 791 791 790 789 788 788 787 787 786 785 785 785 783 781 780 779 778 777 775 775 773 772 770 769 768 766 765 763 761 759 757 755 752 750 747 744 740 735 730 725 721 718 715 713 711 708 706 704 701 698 697 698 697 696 698 699 699 700 701 703 705 707 709 710 710
780 782 783 784 785 787 789 790 791 791 792 792 792 792 792 791 792 792 791 790 789 789 788 787 786 785 785 784 784 783 783 782 780 779 778 777 776 774 773 772 771 770 768 766 765 764 762 761 759 757 755 753 751 749 746 742 738 733 728 723 719 715 712 709 706 704 701 698 695 693 692 693 693 693 694 695 696 698 699 700 701 703 705 706 707
778 779 780 781 782 784 785 787 788 789 789 789 789 789 789 789 789 790 789 788 787 786 786 785 784 784 783 783 782 781 780 778 777 777 776 775 774 772 771 770 769 767 765 764 762 761 759 758 757 755 753 751 749 747 745 741 736 731 727 721 716 712 708 705 702 699 696 693 690 688 687 688 688 689 691 692 694 696 697 698 699 700 702 703 703
774 776 777 778 779 780 782 783 785 786 787 787 787 786 786 786 787 787 787 786 785 785 784 783 783 782 781 781 780 779 778 776 775 774 773 772 772 771 770 768 767 765 764 761 759 757 756 756 755 754 752 750 748 746 743 739 734 729 725 719 714 708 703 699 695 692 689 685 682 680 680 682 684 685 687 689 691 693 694 695 696 697 698 699 700
771 772 774 776 777 778 779 781 782 783 784 785 784 783 783 783 783 784 784 784 783 783 782 781 780 779 779 778 777 776 775 774 773 772 770 770 769 768 768 767 764 764 762 759 757 755 753 752 752 751 750 748 746 744 741 738 732 728 723 718 712 706 700 695 689 683 679 675 672 671 671 674 678 680 682 685 687 689 690 691 694 695 695 697 698
768 770 772 773 775 776 777 779 779 780 781 782 781 781 781 781 781 781 782 781 781 780 779 778 777 776 776 775 774 774 773 771 771 769 768 767 766 765 766 765 762 762 761 758 755 753 751 749 749 749 748 746 744 742 740 736 731 727 723 717 711 704 697 690 682 674 668 665 662 661 663 667 671 675 677 680 683 685 686 688 690 691 693 695 697
766 768 770 771 772 773 775 777 777 778 779 779 778 780 780 779 779 779 779 779 778 777 776 775 774 773 773 773 771 771 770 768 768 767 765 765 764 762 763 763 760 759 758 756 753 752 750 748 748 747 746 744 742 740 737 735 730 726 722 718 711 703 694 685 675 664 658 656 655 655 657 661 665 669 672 675 678 680 682 684 686 688 690 692 694
764 766 767 768 770 771 772 774 775 776 777 776 776 778 778 777 777 777 777 777 776 775 773 772 771 771 771 770 769 769 768 767 766 765 763 762 761 760 760 760 759 758 757 754 752 750 749 747 747 746 745 742 740 738 735 733 729 725 721 717 711 703 694 684 671 658 650 650 652 652 653 656 661 664 667 670 673 675 677 680 682 684 686 687 688
762 763 765 766 767 768 770 772 772 773 775 774 775 776 776 776 775 774 774 774 773 772 771 770 769 768 768 768 767 766 767 766 764 763 762 761 759 759 758 758 758 757 755 753 751 749 748 747 745 744 742 740 738 736 734 731 728 724 720 715 708 700 692 684 673 660 652 651 651 650 650 653 657 660 662 665 668 671 673 675 678 679 681 682 683
759 761 763 764 765 767 768 770 771 772 772 772 773 774 774 774 773 773 773 772 771 770 769 768 767 765 764 764 764 764 764 764 763 762 761 760 758 758 757 756 755 755 753 752 750 749 747 746 744 743 740 738 736 734 732 730 727 724 719 713 706 699 692 684 676 667 660 656 653 651 650 652 654 656 658 661 663 666 669 671 673 675 677 678 680
756 758 760 761 763 766 767 768 770 771 770 771 772 772 772 772 771 771 770 769 768 767 766 766 764 762 761 761 761 762 762 762 761 761 759 758 757 757 756 754 753 752 751 750 749 748 746 745 743 741 739 737 735 733 731 729 726 723 719 714 707 701 694 687 680 674 667 662 658 656 654 653 654 654 655 657 659 661 664 666 668 671 673 675 677
754 755 758 760 763 764 765 765 768 770 769 769 770 770 770 769 769 769 768 767 766 765 764 764 762 761 760 759 759 759 759 759 759 759 758 758 757 756 754 753 751 751 750 749 748 746 745 743 742 740 738 736 734 732 730 728 725 722 719 715 709 704 698 691 685 679 674 670 666 663 659 656 654 653 654 655 657 659 661 663 665 667 669 671 673
755 756 758 760 762 763 763 764 766 768 768 768 768 768 768 767 767 767 767 766 764 764 763 763 763 763 763 762 761 757 756 757 757 757 757 757 756 754 753 751 750 750 748 748 747 745 743 742 740 738 737 735 734 732 730 727 725 722 719 716 712 707 702 697 691 686 682 677 672 667 663 659 655 652 652 653 655 657 658 660 662 664 665 666 668
756 757 758 759 761 762 762 763 765 765 765 766 767 766 766 766 765 764 764 764 763 763 763 763 764 764 764 765 762 757 754 756 756 756 757 756 754 753 752 750 750 749 748 747 746 744 742 740 738 737 736 735 733 732 730 728 725 722 720 717 714 710 706 702 698 693 688 683 677 672 668 663 658 655 653 653 655 656 657 658 659 661 662 663 664
755 756 757 758 759 761 762 763 764 764 764 765 765 765 765 765 764 763 763 763 763 763 763 763 764 764 764 764 762 759 757 756 756 756 756 755 754 752 751 750 749 748 747 746 744 743 741 739 738 737 735 734 733 732 730 728 726 723 721 718 715 712 708 705 702 698 693 687 682 678 673 668 664 662 658 655 655 656 655 656 657 658 660 661 662
755 756 756 757 759 760 762 762 762 763 763 763 764 764 763 763 763 763 763 762 762 763 763 762 763 764 763 762 761 760 760 759 758 757 757 756 754 753 751 750 749 748 747 745 744 742 741 739 738 737 735 734 733 732 730 729 727 725 723 720 717 714 711 708 705 702 697 692 687 683 680 675 671 668 663 660 660 659 657 657 657 657 659 661 662
755 755 755 756 757 758 760 760 760 761 762 762 762 762 762 762 762 762 762 761 762 762 762 762 763 763 763 762 761 760 761 760 759 758 757 756 755 754 752 751 750 748 747 745 743 742 741 740 740 739 737 736 734 733 732 731 729 727 725 722 719 716 713 711 708 705 701 696 692 689 686 682 677 673 669 667 667 665 664 663 662 661 661 663 665
755 755 754 755 755 756 758 759 759 759 760 760 761 761 761 761 761 761 762 762 762 762 762 762 762 762 762 762 762 762 762 761 759 758 757 756 755 754 753 752 750 749 747 745 744 743 742 742 742 741 739 738 736 736 734 732 731 729 727 724 721 719 716 714 710 708 704 700 697 694 691 687 683 680 677 675 673 672 671 670 669 668 668 669 670
755 754 753 754 754 755 757 757 757 758 758 758 759 759 759 760 760 761 762 762 762 762 762 762 762 761 762 762 763 763 762 761 759 758 756 756 755 754 753 752 751 750 748 746 745 745 744 744 744 743 742 740 739 738 737 735 733 732 729 726 724 722 720 717 714 712 708 705 702 700 696 692 689 687 684 681 678 677 676 675 676 677 676 676 676
754 753 752 752 754 755 756 756 756 757 757 757 758 758 758 758 759 761 762 763 762 762 761 761 761 761 762 762 763 764 763 761 760 758 756 756 755 755 754 753 752 750 748 747 747 747 747 746 746 745 744 743 741 740 739 737 736 734 732 730 727 725 723 720 717 715 712 709 707 704 701 698 695 691 688 686 684 682 682 681 682 682 682 682 682
753 752 752 752 753 754 755 755 755 755 755 756 756 757 758 758 758 760 761 763 763 762 762 761 761 761 761 762 763 764 764 762 760 758 757 756 755 755 754 753 752 751 750 749 749 749 748 748 748 747 746 745 743 742 741 740 738 736 734 733 730 728 725 722 719 717 715 713 711 708 706 703 700 696 694 691 689 688 687 686 685 685 685 687 686
752 752 752 752 752 753 754 754 754 754 754 755 756 756 757 757 758 759 760 761 762 762 762 763 762 762 762 763 764 764 764 763 761 759 758 757 756 755 754 754 754 753 752 752 752 751 750 750 750 749 748 747 746 744 743 742 740 738 736 734 733 730 727 724 721 719 718 716 714 712 710 707 704 702 699 697 695 693 693 692 691 690 690 691 690
751 750 751 751 752 752 752 753 754 754 754 755 756 757 757 757 758 759 760 761 761 762 763 764 764 763 763 763 763 764 764 763 762 761 759 758 757 756 756 756 756 755 755 755 754 753 753 752 751 751 750 749 747 746 745 744 742 740 739 737 735 732 730 727 724 721 719 718 717 715 712 710 708 706 704 702 700 699 698 697 696 695 694 695 694
749 749 749 750 751 751 752 753 754 755 755 755 756 757 758 758 759 759 760 761 761 762 762 763 764 764 764 763 764 764 764 763 762 761 760 759 758 758 758 759 758 758 758 757 756 756 755 754 753 752 751 750 749 748 747 745 744 742 740 739 737 735 733 731 728 725 722 721 719 717 715 713 711 709 707 705 704 703 702 700 699 698 697 697 697
749 748 749 750 750 751 753 754 754 755 755 756 757 757 758 759 760 760 761 762 762 763 763 763 764 765 764 764 764 764 763 763 763 762 762 761 761 761 761 761 761 761 760 759 759 758 757 757 756 754 753 752 751 750 749 747 746 744 742 740 739 737 735 733 730 728 726 723 722 720 718 716 714 713 711 709 708 707 705 703 702 700 700 699 698
749 748 749 749 749 750 752 754 754 755 756 756 757 758 759 760 761 762 762 762 763 764 764 765 766 766 766 765 765 763 763 763 763 763 763 763 763 763 763 763 763 762 762 761 760 759 759 758 757 756 755 754 753 752 751 749 748 746 744 742 740 739 737 735 732 730 728 726 724 722 720 719 717 716 714 713 712 710 708 706 705 704 703 701 700
748 748 749 749 750 751 752 753 754 755 756 757 759 759 760 761 762 763 763 763 763 764 765 766 767 768 767 767 765 764 764 765 765 765 765 765 765 765 764 764 764 764 763 763 762 761 760 760 759 758 757 756 755 754 753 751 750 748 747 745 743 741 739 738 736 734 732 730 728 725 724 722 720 719 718 716 715 713 711 709 708 707 705 704 703
748 749 750 751 751 752 752 754 755 755 756 759 760 760 761 762 762 763 764 763 763 764 766 767 768 769 769 768 767 766 766 766 767 766 766 766 766 766 766 765 765 765 765 764 763 762 762 761 760 760 758 757 756 755 754 753 752 750 749 747 745 744 742 740 739 737 735 733 731 729 727 726 724 722 721 719 717 716 715 713 711 710 708 707 706
749 751 751 752 752 752 753 754 755 756 758 760 761 762 763 763 763 764 764 763 762 764 766 768 769 770 769 769 768 767 767 767 767 767 767 767 767 767 766 766 766 766 765 765 764 763 763 762 762 761 760 759 758 757 756 755 753 752 751 749 748 746 744 743 741 740 738 736 735 732 731 729 728 726 724 722 720 719 717 716 715 713 711 710 709
751 751 752 753 753 754 754 755 756 757 759 760 761 763 763 764 764 764 763 762 763 764 765 768 769 769 770 769 768 768 768 768 768 767 767 767 767 767 767 767 767 767 766 766 765 764 764 763 763 762 761 760 759 758 757 756 755 753 752 751 749 748 746 744 743 742 740 739 737 736 734 732 730 729 727 725 724 722 720 719 718 716 715 714 713
752 752 753 754 754 755 756 756 757 758 759 760 761 762 762 763 763 762 762 762 762 763 764 766 767 768 769 769 768 768 768 768 768 768 767 767 767 767 767 767 767 767 767 766 766 765 765 764 764 763 762 761 760 759 758 757 756 755 754 752 751 750 748 746 745 744 742 741 739 738 737 735 733 732 730 728 726 725 723 722 720 719 718 717 716
751 752 752 753 754 755 756 757 757 758 759 760 760 760 761 761 762 761 761 761 762 763 764 764 766 767 769 769 768 768 768 768 768 768 767 767 767 766 765 765 766 767 767 766 766 766 766 765 765 764 763 762 761 760 759 758 757 756 755 754 752 751 749 747 746 745 744 743 741 740 739 737 736 734 733 731 729 727 726 725 724 722 721 720 719
750 751 751 752 753 754 754 755 756 757 757 757 757 757 758 759 760 761 761 761 762 764 764 764 765 767 767 767 767 767 767 767 767 767 767 767 767 766 764 764 765 766 766 766 767 766 766 766 765 764 764 763 762 761 761 760 759 758 756 755 753 752 750 748 747 746 746 744 743 742 741 739 737 736 735 733 732 730 728 727 726 725 724 724 723
748 749 750 751 752 753 754 755 755 755 756 756 756 756 756 757 759 760 761 761 762 763 762 762 764 765 765 765 765 765 765 766 765 765 765 766 766 765 765 765 766 766 766 767 767 767 766 766 765 765 764 764 763 762 762 761 760 759 758 756 754 753 751 749 748 747 747 745 744 744 743 741 739 738 736 735 734 733 731 730 729 728 727 726 725
748 748 749 750 751 753 754 755 756 757 756 756 756 756 756 756 758 760 761 761 761 761 760 760 762 764 763 763 764 764 765 765 764 763 764 764 764 765 765 765 766 766 766 767 767 767 766 766 766 765 765 764 764 763 763 762 762 760 759 757 755 754 752 751 749 748 747 745 745 745 745 743 741 740 738 737 736 734 733 732 731 730 729 728 727
748 749 750 751 752 753 753 754 756 756 755 754 755 756 756 755 756 759 760 760 760 759 759 760 762 763 763 763 763 763 764 763 763 763 764 764 764 765 766 766 766 766 766 767 767 766 766 766 766 765 765 765 765 764 764 763 763 761 760 759 757 755 754 752 751 750 749 747 746 746 746 745 743 742 741 739 738 737 735 734 733 732 731 730 729
747 747 748 748 749 750 750 751 752 752 751 751 752 753 753 753 754 755 757 758 759 759 759 760 761 762 762 762 762 762 763 763 763 763 763 764 765 765 765 766 766 766 766 767 767 766 766 766 766 766 766 765 765 765 764 764 763 762 761 760 758 756 755 754 753 751 750 749 747 748 748 747 745 744 743 741 740 739 738 736 735 733 732 731 731
745 746 747 747 747 748 748 749 750 750 750 750 751 750 750 752 752 752 754 756 758 758 759 759 760 760 760 761 761 762 762 763 763 763 763 764 764 765 765 766 766 766 766 767 766 767 767 766 766 766 766 766 766 766 765 764 763 762 761 760 759 757 756 755 754 753 752 750 749 749 749 748 747 746 745 744 742 741 740 739 737 736 734 733 732
Wind_Speed
9 7 6 6 6 6 6 6 6 7 7 7 7 7 8 9 10 10 9 10 11 11 11 12 12 12 13 13 14 14 14 13 12 12 12 11 12 12 12 13 14 15 16 17 18 20 21 22 23 24 25 27 28 28 29 29 28 30 32 29 29 30 30 28 19 15 23 28 26 26 26 25 24 25 28 28 27 29 30 30 32 29 27 28 29
10 8 7 6 6 7 7 7 7 7 7 7 7 8 9 10 10 10 10 11 11 11 12 13 13 13 14 14 14 14 14 14 12 11 11 11 11 11 11 13 15 16 17 18 19 20 21 22 23 24 25 26 28 29 30 30 29 30 33 30 28 30 31 32 27 16 16 24 27 27 28 27 25 23 26 28 26 24 25 27 28 26 24 26 27
11 10 8 7 7 7 7 7 8 8 8 8 9 9 10 11 10 9 10 11 11 12 13 14 14 15 15 16 16 15 15 14 12 10 11 12 11 10 11 13 14 15 17 18 19 19 19 21 22 24 24 24 27 28 29 30 28 27 31 33 32 33 33 32 30 22 17 20 25 26 26 27 28 26 27 31 29 25 26 27 27 27 24 23 23
10 10 9 8 8 8 8 8 8 9 9 9 9 10 11 11 9 8 10 12 12 13 13 14 15 15 16 17 17 16 16 14 13 11 11 11 11 10 11 12 13 15 17 17 18 18 18 20 21 23 23 23 24 26 27 30 30 29 32 36 36 37 36 33 32 30 23 20 23 25 25 25 27 26 26 29 30 29 28 28 29 30 26 23 22
9 9 9 8 8 9 9 9 9 9 9 9 10 11 11 11 10 10 12 13 13 14 14 14 15 15 16 17 17 17 18 17 16 15 13 11 11 11 10 11 13 14 15 16 16 17 17 18 20 22 23 23 23 25 26 29 31 32 33 34 35 36 36 33 31 32 29 23 21 23 23 23 25 25 25 26 27 27 28 29 33 32 27 26 25
9 9 9 8 8 9 9 9 9 10 10 10 11 11 11 11 11 12 12 13 14 15 15 15 15 16 17 17 17 18 18 18 17 17 15 13 11 10 10 12 13 14 14 14 15 16 16 16 17 19 20 20 22 26 28 29 29 31 32 32 30 30 32 30 28 29 32 29 24 23 23 23 23 24 24 24 24 24 22 24 29 29 25 26 26
10 9 9 8 8 9 9 9 10 10 9 10 10 11 11 11 11 12 13 14 16 16 15 15 15 16 18 18 18 16 15 16 16 15 15 15 13 10 11 13 14 14 13 13 13 14 14 14 15 15 17 19 22 26 28 29 30 31 31 31 29 26 27 30 28 27 29 29 25 23 24 24 24 25 24 23 24 24 20 18 21 24 23 24 25
11 10 9 9 9 9 9 9 10 10 9 10 10 11 10 10 11 12 14 15 15 15 16 16 15 16 17 18 18 16 14 15 17 15 14 15 13 11 12 13 15 15 13 13 13 12 12 13 13 15 18 21 24 26 27 28 31 32 30 28 27 26 25 26 27 25 23 22 23 22 23 23 24 26 26 23 22 23 23 20 18 19 22 24 25
12 11 10 10 10 10 9 9 10 9 9 10 11 11 10 10 11 12 14 14 15 16 16 16 16 17 18 17 17 15 14 16 18 16 14 13 12 12 13 15 16 15 14 13 12 12 11 12 14 17 21 24 24 25 26 26 27 30 32 29 26 26 25 23 24 25 20 17 19 22 22 20 22 26 26 23 22 22 22 23 20 18 22 23 23
12 11 11 11 11 11 10 10 10 10 10 10 11 11 11 11 12 13 13 14 15 16 16 15 16 17 17 16 15 14 13 14 14 13 14 14 13 13 15 16 16 15 15 14 13 13 11 12 16 20 22 24 25 25 26 26 25 28 32 31 28 26 24 21 22 24 20 16 19 22 21 18 22 27 27 24 24 21 19 21 21 19 20 18 18
13 12 12 12 12 11 10 10 11 11 11 11 12 12 12 11 12 13 13 14 15 15 14 14 15 16 16 16 15 13 11 11 11 10 12 15 16 15 15 17 16 16 16 16 14 13 12 13 17 21 24 26 26 26 26 26 28 31 33 34 32 28 24 21 21 22 21 19 22 25 22 19 23 29 28 24 24 21 19 20 20 20 19 15 12
12 12 12 12 12 11 10 10 11 11 11 12 12 12 12 12 12 13 13 13 14 14 13 14 14 15 15 15 14 13 11 10 11 10 11 14 16 16 16 16 17 17 16 16 15 13 13 14 17 21 25 26 26 26 25 28 32 35 35 35 33 29 26 24 24 23 23 21 23 26 27 23 24 28 28 25 23 22 21 21 21 22 23 19 14
13 13 13 13 12 12 11 11 11 11 12 12 13 13 12 12 12 12 12 12 13 13 13 14 15 14 14 14 14 14 13 12 11 11 11 13 15 16 17 17 18 18 17 16 15 14 14 14 15 20 23 24 26 26 27 31 35 35 34 34 32 30 28 28 28 27 27 26 26 28 29 26 26 28 28 25 23 22 21 21 22 23 23 21 18
13 13 15 14 13 12 11 11 12 12 12 12 13 13 13 12 12 12 12 12 12 12 13 15 14 11 12 13 13 13 13 12 12 12 12 13 14 16 18 17 18 19 18 16 16 15 15 14 16 20 23 25 27 28 29 32 34 32 32 33 33 31 30 28 27 27 28 29 29 31 33 31 30 29 27 25 25 23 22 22 21 23 24 22 20
13 15 15 14 14 13 12 12 12 11 12 13 13 13 13 12 11 11 12 12 12 11 12 13 12 9 9 10 11 12 12 12 14 15 16 16 16 16 17 17 18 20 18 16 17 18 16 16 17 21 23 26 27 28 29 33 33 30 30 33 34 32 30 28 27 27 27 29 30 33 36 35 32 30 27 26 26 24 23 23 21 21 22 20 19
15 16 16 16 15 14 13 12 12 12 12 13 13 13 12 11 11 12 13 13 12 11 11 12 11 9 8 7 9 11 12 15 17 16 17 18 18 18 17 16 17 20 18 17 18 18 17 16 17 19 21 24 26 27 29 32 34 32 31 33 34 33 31 30 30 30 29 31 33 34 36 37 34 32 29 27 26 23 21 22 20 17 17 14 14
17 17 18 18 16 14 13 12 12 12 12 13 14 13 11 11 12 12 13 12 12 12 11 11 11 10 10 9 10 12 13 15 16 17 17 17 18 19 17 15 17 20 19 17 17 16 16 17 19 20 20 22 24 25 27 30 34 35 34 33 33 34 33 32 31 32 32 33 36 38 39 40 38 36 34 30 27 23 19 19 19 15 13 10 9
19 19 19 18 15 13 12 12 12 11 12 13 13 11 11 12 12 12 12 13 13 12 11 11 11 10 10 11 11 12 14 14 15 18 18 16 17 20 19 17 19 23 22 18 14 15 17 19 20 21 21 21 21 23 25 27 31 36 35 34 34 34 36 36 37 38 36 33 34 36 39 42 40 38 36 33 32 27 21 19 20 16 12 11 11
19 18 18 17 15 13 11 12 12 12 12 13 12 10 11 12 12 12 13 14 14 13 12 12 12 11 11 12 12 12 13 13 14 17 18 16 18 22 21 17 18 22 23 19 15 15 17 19 20 20 20 20 21 22 22 23 28 34 34 33 32 35 40 44 45 44 37 30 28 29 34 41 42 39 36 34 34 33 28 22 20 18 15 15 16
17 17 16 16 15 13 11 12 12 11 12 12 11 10 11 12 12 12 14 16 17 16 14 13 12 12 12 12 13 13 12 12 14 17 19 18 19 20 21 18 16 19 21 20 18 17 17 18 18 18 18 19 21 22 20 21 27 32 33 31 33 39 47 50 51 47 34 26 24 25 28 33 36 37 37 35 33 34 33 27 24 23 19 19 20
15 17 16 16 15 13 12 11 10 10 12 12 10 10 11 11 11 12 15 17 17 15 12 12 12 12 12 13 13 11 11 12 15 17 18 17 15 15 17 16 15 17 19 20 20 19 18 18 18 17 18 21 22 21 19 19 26 31 33 35 38 43 47 47 49 43 22 18 19 21 23 27 31 35 36 35 32 32 32 30 29 29 26 24 23
15 17 16 16 16 13 11 10 9 11 13 11 9 9 11 11 11 12 15 17 15 13 12 12 11 11 13 14 11 10 12 14 16 16 15 14 13 14 15 16 15 17 18 18 19 20 19 19 18 18 21 23 21 19 17 18 24 29 33 38 42 45 45 43 44 39 17 6 12 17 22 24 27 30 30 31 32 32 32 31 31 31 30 29 26
15 16 17 17 16 13 11 10 9 10 11 9 8 10 11 11 11 14 16 16 14 13 13 13 12 11 13 12 8 8 11 12 14 15 13 12 12 13 16 17 17 17 16 16 18 20 19 18 18 20 21 20 17 16 15 16 21 26 32 37 42 44 44 42 42 39 29 21 17 8 11 19 24 26 24 26 32 33 32 32 32 31 31 30 28
16 17 17 15 13 11 9 7 8 9 8 7 8 10 11 10 12 14 14 14 13 13 13 13 13 13 12 10 7 7 9 9 11 13 11 10 13 15 16 17 17 17 17 17 19 19 18 18 18 18 17 14 13 14 14 15 19 24 29 34 39 41 42 42 41 38 33 31 31 24 14 5 13 23 26 27 29 31 32 31 30 31 30 29 29
13 13 12 11 11 9 7 5 7 8 7 6 8 10 10 11 12 13 13 13 12 13 13 12 13 13 12 10 8 6 5 6 9 10 10 11 14 16 16 16 16 15 15 17 18 18 17 18 17 15 13 12 12 15 17 18 20 23 26 31 35 37 39 40 40 37 33 29 27 25 24 21 11 14 27 30 26 25 27 27 28 28 28 31 34
8 10 11 10 9 8 7 8 8 8 5 5 8 10 11 12 12 12 13 14 13 11 11 13 16 17 18 19 15 6 1 3 5 7 10 12 14 15 15 14 13 12 13 16 16 16 16 17 15 13 13 13 12 14 17 20 22 23 24 28 31 32 35 37 37 35 33 30 28 26 26 27 24 10 13 27 28 26 25 25 24 25 26 29 32
9 10 9 8 7 7 6 6 5 4 4 7 10 12 11 12 13 13 13 14 14 12 10 10 12 15 19 23 18 7 3 3 4 7 11 14 15 16 15 13 12 12 12 13 15 16 17 16 13 11 12 11 10 11 14 19 23 23 23 26 29 30 31 34 34 34 33 31 30 30 30 29 31 28 16 3 7 15 25 29 27 25 25 24 23
9 9 8 7 7 6 4 3 3 5 7 9 11 12 10 12 14 11 10 10 10 10 10 8 8 10 13 16 15 12 8 6 8 12 15 16 16 16 14 13 13 13 12 14 16 17 17 15 11 9 9 10 10 11 14 19 24 24 24 26 29 29 29 30 32 33 33 32 31 31 32 31 31 31 29 28 26 15 5 19 24 26 24 20 16
7 7 7 7 8 6 3 3 5 6 8 9 8 7 9 12 13 9 8 9 8 8 9 8 8 9 9 9 9 9 8 9 11 14 14 12 13 14 14 14 16 15 14 15 15 14 14 13 10 9 10 11 12 12 14 19 23 24 24 26 29 30 30 30 31 31 31 31 31 31 31 30 29 30 30 31 33 31 24 13 0 12 17 15 12
7 7 6 7 8 6 5 6 6 6 9 10 8 4 6 10 12 8 5 7 7 6 6 5 5 6 5 6 8 8 8 10 13 13 10 8 8 11 13 14 15 14 13 12 11 9 10 10 10 12 12 12 13 13 14 16 18 20 23 26 28 29 29 29 30 30 30 30 31 30 29 28 29 30 29 29 30 32 34 32 25 18 13 10 8
7 7 7 7 6 5 6 7 7 8 9 10 9 6 4 4 4 5 4 4 4 4 4 3 4 4 4 6 8 8 9 11 13 12 10 7 5 9 13 14 12 10 9 8 8 8 9 9 10 12 12 12 13 14 14 15 15 17 20 24 26 27 28 28 30 30 30 31 31 30 29 28 28 28 27 26 27 28 30 33 32 30 28 24 21
8 9 9 6 3 4 7 8 8 9 8 7 8 8 5 3 1 2 3 2 1 1 3 4 6 7 6 6 7 9 10 12 12 12 10 7 4 7 12 15 13 10 7 8 9 10 11 10 10 11 12 12 13 13 14 15 15 16 18 21 23 25 26 26 27 28 29 30 30 29 29 28 27 28 27 26 26 25 26 29 30 28 26 25 23
9 9 8 6 5 5 6 7 6 6 7 6 5 6 7 6 4 1 3 2 1 2 3 5 7 8 8 7 8 10 11 11 11 11 10 7 4 5 9 13 15 12 10 10 10 10 10 10 10 11 11 11 12 13 13 14 15 15 16 17 20 23 25 24 24 25 27 29 29 28 29 29 29 28 27 26 26 25 23 24 24 24 23 22 20
8 7 6 6 7 6 7 7 7 6 5 5 5 5 5 6 5 2 3 3 2 2 3 4 6 7 7 8 9 11 12 12 12 11 8 5 4 4 4 7 11 13 13 12 11 10 10 10 10 11 11 11 12 12 12 13 14 15 16 16 17 20 22 24 25 25 25 26 28 27 27 29 30 28 26 25 24 23 22 21 21 21 21 19 17
7 7 6 6 6 7 8 7 5 4 4 3 4 4 4 3 3 2 4 5 4 2 2 3 4 4 5 6 8 10 12 14 14 13 10 7 5 5 4 5 8 10 11 12 12 12 11 11 11 11 12 12 12 12 13 13 14 14 15 16 16 17 19 22 25 25 22 22 25 26 26 27 28 28 26 25 24 22 20 19 18 18 18 18 17
9 9 6 5 6 7 7 5 2 2 2 1 1 1 2 2 2 0 2 3 3 3 5 6 4 4 6 8 8 8 10 12 13 14 14 12 10 10 9 8 8 9 10 11 12 12 12 12 11 12 12 12 12 13 13 13 14 14 15 15 15 16 17 19 22 23 21 19 21 23 24 26 27 27 26 25 24 24 22 19 17 16 16 16 15
9 7 5 5 6 4 3 2 1 2 2 1 1 2 3 3 3 3 3 2 3 1 4 6 6 5 4 7 8 6 6 7 9 12 15 15 13 12 11 10 10 10 10 11 11 11 11 11 11 11 12 12 13 13 13 13 14 14 15 15 15 16 16 16 18 20 19 19 20 21 21 23 24 26 26 24 23 24 24 21 18 16 15 14 13
5 4 4 3 4 3 3 3 2 3 4 4 3 4 5 4 4 4 4 5 6 6 5 4 2 2 5 8 9 7 5 4 5 7 10 12 12 11 10 10 10 10 9 9 9 9 9 9 9 10 11 11 12 13 13 13 14 15 16 15 14 16 16 16 17 18 18 18 19 20 20 20 21 23 25 24 22 23 24 22 20 19 16 14 12
4 2 2 3 3 3 4 4 4 4 6 6 6 6 6 5 5 5 5 6 6 6 5 5 6 7 7 8 9 8 5 3 3 6 7 8 9 9 9 9 9 9 9 9 8 8 8 8 9 10 10 10 11 11 12 12 13 14 15 15 14 15 16 17 17 18 18 18 19 20 20 19 19 20 21 21 20 21 21 21 21 20 18 16 13
3 2 2 3 3 2 4 5 5 6 7 7 7 7 6 4 4 4 4 4 4 3 3 3 4 5 5 6 7 7 4 2 3 4 5 6 7 8 8 8 8 8 8 8 8 9 9 9 9 10 10 11 11 11 11 12 12 13 14 15 15 15 15 15 16 17 17 18 18 18 19 20 19 18 18 19 19 18 19 20 20 20 19 18 15
2 1 1 2 3 3 4 5 5 6 8 7 7 7 6 4 2 2 4 3 2 1 1 3 3 4 3 3 5 7 5 4 3 4 4 5 6 6 7 8 7 7 8 8 8 8 8 8 9 9 10 10 11 11 11 12 12 12 13 14 14 14 14 14 15 16 16 17 18 18 18 19 18 17 18 18 18 17 18 18 17 19 20 19 17
1 2 2 3 3 4 5 7 8 10 11 9 6 5 4 3 3 4 5 4 2 1 2 2 1 2 1 3 5 6 5 4 3 3 4 5 5 5 6 6 7 7 7 7 8 8 7 7 8 8 9 10 10 10 11 11 12 12 12 13 13 14 14 14 15 16 15 15 16 17 18 18 17 17 17 18 17 16 17 17 16 17 19 19 18
1 2 3 4 4 5 6 8 9 10 10 9 6 5 5 5 5 5 4 3 2 3 3 3 2 2 0 3 4 4 3 2 2 3 3 4 4 5 5 6 6 7 7 7 7 7 6 6 6 7 8 9 9 10 10 11 11 12 12 12 13 13 14 14 15 16 16 15 16 16 17 17 17 16 17 17 16 15 16 16 16 17 17 16 16
4 5 5 5 5 5 6 7 7 8 8 7 7 7 7 6 5 5 5 4 4 5 5 4 4 3 2 1 1 1 1 2 2 2 2 2 2 3 3 4 4 5 5 5 6 6 5 5 6 6 7 7 8 9 9 10 11 12 12 12 13 13 14 14 15 16 16 16 16 16 16 16 16 16 16 16 15 15 15 15 16 16 16 16 15
6 6 7 6 6 6 7 6 6 7 7 7 8 8 7 4 4 5 6 6 5 5 5 5 3 3 3 3 3 2 2 2 2 2 1 1 0 1 2 2 3 4 4 4 4 5 5 5 5 6 6 7 8 8 9 10 11 12 12 13 13 14 14 13 13 15 16 15 15 16 16 15 14 15 16 16 15 14 14 15 15 14 15 16 14
6 6 7 7 7 7 7 8 8 8 9 9 8 7 7 6 5 6 6 5 5 5 5 4 4 4 5 6 5 4 3 3 3 3 2 1 3 4 3 2 2 2 3 3 4 4 5 5 5 6 6 7 7 8 9 9 10 11 12 13 14 14 13 12 12 14 15 13 13 15 16 15 14 15 15 15 14 14 14 14 14 14 14 14 13
4 4 5 5 5 5 5 5 5 6 7 7 5 5 5 6 5 5 5 5 6 7 6 5 5 6 6 6 5 4 4 3 3 3 2 2 2 1 2 3 2 2 2 3 4 4 5 5 6 6 6 6 7 8 8 9 10 11 12 13 15 15 14 13 12 12 12 12 13 14 14 14 14 14 15 15 14 14 14 14 14 13 13 13 13
3 4 4 4 5 6 6 6 4 5 7 7 5 6 7 5 4 4 6 6 7 7 7 6 5 6 6 5 4 4 4 3 3 2 2 2 1 1 2 2 1 1 2 2 3 4 5 5 6 6 6 6 6 7 8 9 9 10 12 13 14 14 14 13 12 10 10 11 12 13 13 13 13 13 14 14 15 14 14 14 13 13 13 12 13
4 5 5 6 6 7 8 8 7 8 10 8 6 7 9 7 5 6 7 7 7 7 7 6 6 6 6 6 5 4 4 3 2 2 1 2 2 2 2 1 0 1 1 2 2 3 4 5 6 6 6 6 6 6 7 8 8 10 11 12 12 13 12 12 11 10 10 12 12 12 12 12 12 12 13 13 13 13 14 14 13 12 12 12 12
7 7 8 9 9 9 10 10 10 11 11 8 7 8 9 8 8 8 8 7 8 8 7 7 7 7 7 6 5 4 3 3 2 2 2 2 2 3 3 2 2 1 1 1 2 2 2 3 4 5 6 6 6 6 7 7 7 9 11 11 11 12 12 11 10 10 11 13 13 12 11 11 11 11 12 13 13 12 13 14 14 12 12 12 12
7 7 8 9 10 10 10 10 10 10 10 8 8 9 9 8 9 8 7 8 9 9 8 8 7 7 6 6 5 3 3 2 2 2 3 3 3 3 3 2 2 1 1 1 1 1 2 3 3 4 4 5 5 6 7 7 7 8 10 12 13 12 11 11 10 9 11 14 13 11 11 10 10 11 11 12 13 12 12 12 13 12 12 12 12
Wind_Direction
195 199 205 214 219 223 225 221 224 232 236 243 255 270 279 280 283 285 286 290 290 288 287 286 287 288 290 292 293 293 293 293 298 302 304 305 304 305 309 312 314 313 314 317 319 320 319 317 315 312 311 309 305 302 299 293 286 279 274 266 256 249 246 244 244 254 258 254 254 256 256 253 247 240 241 244 243 245 244 242 246 244 231 227 231
193 196 202 211 221 224 225 225 225 231 239 245 257 269 272 270 275 276 277 284 287 286 288 287 286 287 287 289 290 290 289 291 295 297 298 300 298 300 305 309 313 313 313 319 322 323 321 319 319 318 318 316 311 308 305 301 296 288 284 278 264 255 249 242 239 244 255 253 251 254 252 249 244 237 237 244 246 244 238 236 243 246 237 230 230
188 191 201 211 220 223 223 227 229 234 241 246 257 275 280 271 268 273 282 289 289 286 287 285 284 285 286 286 285 285 284 287 292 293 294 294 289 294 306 310 312 312 314 321 324 325 325 324 324 324 324 322 317 312 309 305 302 298 295 291 281 266 252 241 239 241 246 249 248 249 248 245 243 239 238 241 242 238 234 236 241 242 238 231 227
188 191 200 211 219 222 223 225 231 239 244 249 257 272 279 279 289 301 294 288 287 286 286 283 282 282 283 285 285 282 281 284 288 287 287 288 287 293 305 308 308 311 316 323 326 326 329 329 329 329 326 324 321 317 315 313 311 308 303 300 295 279 257 243 243 243 244 247 246 246 247 245 243 239 236 236 233 228 227 230 233 236 235 228 224
196 196 203 213 217 219 224 229 235 241 246 254 262 270 281 291 301 294 283 284 291 292 288 286 287 285 284 285 286 284 284 288 292 291 289 289 289 293 302 304 306 311 317 322 324 327 332 333 332 331 328 327 325 323 322 319 317 314 308 304 298 280 258 244 243 243 242 243 245 248 249 248 245 240 234 232 228 224 224 226 228 231 231 230 229
197 201 210 218 219 220 225 232 239 243 247 254 261 268 278 286 290 292 298 303 299 292 288 289 291 291 289 286 283 280 280 285 291 295 296 297 294 294 298 298 301 309 315 318 321 327 335 336 332 332 333 330 328 328 326 322 318 316 316 313 302 281 262 251 244 240 242 241 240 246 251 250 247 239 234 232 228 224 222 222 224 224 224 229 230
196 203 215 223 226 227 228 233 240 245 249 256 262 267 276 287 296 302 303 297 291 290 292 293 293 293 293 289 284 281 278 278 282 285 290 293 292 290 291 292 298 306 309 312 318 325 333 335 331 331 335 335 333 331 329 325 320 317 317 317 313 301 283 268 251 239 240 241 237 237 243 248 248 243 236 232 231 228 221 217 220 220 220 224 224
198 204 212 222 228 230 232 236 241 244 248 255 262 268 276 287 290 290 289 286 289 294 296 296 296 294 293 290 288 287 283 280 279 277 275 278 279 280 283 288 297 302 304 307 314 321 328 331 327 326 334 338 337 333 331 328 323 319 316 315 316 316 307 287 266 248 239 238 236 232 234 242 250 250 241 231 231 229 223 221 222 218 219 222 223
201 204 209 219 224 226 231 237 240 242 245 253 260 266 274 281 283 287 288 286 290 295 298 300 300 295 292 290 291 291 285 279 278 274 265 265 273 279 283 290 296 299 300 301 307 312 318 322 324 329 337 340 337 333 332 330 324 319 316 314 315 316 315 306 283 261 244 236 238 235 231 233 242 247 241 231 228 227 221 224 227 220 216 216 218
199 205 212 219 221 222 227 234 238 239 242 251 261 267 272 276 284 291 291 288 292 296 297 296 294 294 295 294 294 292 284 278 276 266 260 268 278 282 287 294 297 296 296 296 300 306 306 309 320 328 333 335 335 334 333 330 323 318 317 317 317 313 308 303 289 270 256 244 241 239 234 229 232 239 238 230 227 226 218 219 229 229 219 211 213
200 207 215 220 221 223 227 234 237 238 241 250 260 268 271 274 283 289 289 291 293 293 293 294 295 297 298 297 297 295 290 288 288 278 273 279 283 283 288 296 296 293 293 293 295 301 301 302 314 323 325 325 327 330 332 330 324 322 322 322 321 317 306 296 288 279 268 255 245 242 239 233 232 236 236 230 225 223 217 213 222 232 226 212 209
203 209 216 220 221 225 231 237 241 242 245 252 259 266 271 274 279 284 287 291 294 294 294 294 294 294 294 294 296 295 296 293 290 290 290 289 287 283 283 290 294 293 292 290 288 294 300 301 309 321 325 323 322 323 326 327 325 324 325 324 322 320 312 300 289 280 272 264 256 250 243 237 235 236 234 230 225 222 220 212 212 228 233 222 213
206 212 217 219 220 226 233 239 245 247 248 253 259 264 269 272 275 281 286 291 295 296 296 295 295 297 302 307 307 307 307 300 292 293 293 290 288 281 276 281 291 293 291 287 282 285 296 300 304 314 320 320 320 321 322 326 327 326 326 326 323 319 314 306 296 286 275 266 260 254 247 240 238 237 232 229 228 223 221 215 210 221 232 226 219
208 214 218 218 221 229 233 237 244 249 251 253 257 261 265 268 272 280 286 288 292 294 298 299 298 302 309 307 303 305 305 300 299 301 297 293 288 279 274 278 288 293 289 286 281 280 289 297 300 307 312 316 319 320 321 325 327 325 324 325 324 319 314 308 302 295 284 270 258 252 248 243 240 240 234 229 229 226 223 220 216 219 227 228 225
212 219 221 219 220 225 229 236 243 251 256 254 254 259 261 259 265 277 282 283 285 287 294 298 300 314 324 306 293 295 294 293 298 298 295 292 286 279 275 276 285 291 288 284 283 281 284 292 296 302 307 312 317 319 322 326 328 324 322 324 324 319 313 306 301 297 289 275 259 248 244 242 240 241 237 231 230 230 227 227 228 227 228 229 228
218 223 223 221 222 222 226 235 243 251 258 259 257 259 258 253 259 271 273 275 279 281 289 294 296 308 321 309 298 297 295 297 300 298 295 290 280 274 272 272 285 295 292 286 284 281 281 285 291 298 303 307 314 320 324 328 329 325 322 323 324 319 312 305 299 294 289 280 270 256 245 239 237 237 237 234 232 231 229 231 233 228 223 222 224
220 225 224 224 224 223 226 235 243 248 257 262 262 262 258 253 257 263 265 270 275 278 282 284 284 290 299 301 301 299 299 303 302 298 298 291 276 269 270 276 293 302 299 290 283 280 280 284 291 299 302 304 312 322 329 331 330 328 325 322 321 319 314 310 305 299 291 283 276 264 248 239 235 234 234 234 231 228 227 229 226 215 209 213 218
223 223 224 227 229 228 232 240 243 244 252 260 262 263 262 260 259 259 263 271 276 276 276 276 276 279 285 291 296 297 299 301 299 298 300 293 277 270 272 284 298 302 302 297 289 284 286 291 300 305 305 306 314 325 333 335 332 330 328 322 319 320 320 317 312 306 295 284 276 264 248 238 234 232 231 229 227 226 223 224 223 216 209 213 213
224 223 223 228 233 234 239 247 247 245 252 261 261 261 267 269 262 257 263 272 275 275 273 274 277 280 286 293 295 295 297 298 299 304 305 299 288 277 270 276 292 299 303 306 306 300 296 300 307 308 307 312 316 322 331 337 336 334 331 325 319 322 325 322 315 307 295 279 269 257 241 233 231 231 229 226 226 228 226 224 225 223 220 223 224
223 224 224 228 233 237 243 249 247 247 254 261 259 258 266 270 266 264 268 274 277 278 278 279 278 278 284 292 293 293 297 298 300 305 304 299 293 282 269 268 282 295 301 308 313 313 309 309 313 313 312 315 317 318 325 335 338 336 333 328 323 325 328 326 321 314 296 268 256 246 228 223 224 226 226 224 224 227 226 224 225 225 222 225 230
224 225 228 230 234 241 247 245 244 254 264 263 255 256 263 264 266 272 275 277 277 276 275 276 277 279 286 291 292 297 302 303 305 309 304 296 295 292 282 276 281 291 298 305 312 315 316 316 316 316 315 315 316 318 322 331 338 338 336 334 333 334 334 333 332 328 302 243 243 244 223 213 215 219 222 223 222 222 221 221 223 225 225 226 230
234 229 225 229 237 242 239 231 235 256 265 260 249 253 259 261 267 274 276 276 274 268 267 269 268 274 281 282 288 300 304 305 311 313 307 299 300 303 298 292 288 288 293 298 305 311 315 315 314 315 315 314 315 318 323 333 339 340 341 342 343 344 343 342 344 347 341 251 249 241 218 209 212 215 218 220 220 220 219 219 220 223 226 229 233
233 226 225 233 241 237 222 221 236 251 257 257 254 255 259 265 271 273 271 272 269 262 262 264 264 268 272 271 280 297 295 300 313 316 311 307 307 305 301 299 293 290 290 293 299 307 312 313 315 316 315 314 317 322 327 333 338 341 345 348 349 349 348 349 353 358 4 10 2 320 226 210 211 214 215 217 219 219 218 218 218 221 225 228 232
227 231 234 233 226 214 204 222 255 257 253 257 259 259 261 265 269 269 266 264 265 266 265 266 266 267 267 263 268 280 282 293 314 319 316 315 316 314 310 304 296 290 290 293 298 303 308 314 319 319 319 321 329 337 338 335 338 343 347 349 350 350 350 352 355 357 3 12 13 6 353 304 224 218 217 215 216 216 216 217 218 218 222 225 227
227 223 213 196 193 195 189 205 247 252 247 256 265 268 271 270 271 276 274 265 265 271 275 278 279 279 281 278 263 255 271 294 311 322 324 322 321 317 311 307 301 295 294 298 303 306 310 316 321 322 325 330 338 346 347 342 341 347 349 349 350 351 352 353 355 358 2 5 5 3 4 4 346 240 223 218 215 214 213 215 218 217 220 225 228
202 182 173 178 193 198 189 197 221 229 231 262 276 274 275 278 279 280 277 274 275 279 289 305 315 320 319 304 283 257 278 322 324 338 332 324 321 315 310 312 313 304 299 303 311 318 320 322 322 319 322 329 333 341 345 341 339 345 349 348 350 353 354 354 354 356 359 2 3 4 5 8 14 5 231 218 215 216 215 215 219 220 218 221 226
176 168 171 188 198 192 186 197 218 243 271 287 284 278 281 291 291 283 278 281 287 290 294 308 320 321 312 301 295 304 29 20 6 356 337 328 327 324 321 323 320 312 306 306 314 323 325 323 321 316 318 331 340 342 346 346 347 351 353 352 354 358 0 360 358 356 359 2 6 8 9 14 25 31 33 81 192 218 220 216 218 222 218 213 214
186 181 180 184 180 173 177 197 235 284 287 279 279 283 290 297 299 300 301 298 295 297 299 302 310 311 312 318 327 341 2 14 6 350 338 336 337 337 335 332 325 321 319 315 318 328 330 325 324 328 333 348 356 353 352 355 359 1 360 357 360 5 7 6 3 359 360 5 8 10 12 17 23 29 36 43 44 42 211 213 215 216 213 209 208
192 183 177 181 179 174 200 255 256 263 267 269 276 278 271 276 286 302 313 303 295 298 303 307 314 315 319 337 346 346 353 356 345 337 338 345 352 351 349 342 333 327 325 324 328 337 336 330 339 358 360 1 5 2 358 359 360 0 1 3 6 9 10 9 5 360 360 6 9 9 12 17 20 25 35 40 40 43 48 46 109 207 205 207 213
197 197 205 221 218 213 240 263 258 259 271 282 287 259 228 253 273 282 289 294 300 308 311 319 331 328 339 9 10 2 355 341 333 332 336 346 360 1 357 350 340 330 328 335 345 350 347 350 4 9 5 6 8 4 360 360 359 358 0 5 9 11 11 10 8 4 3 8 11 10 11 16 18 22 31 37 38 43 48 45 44 54 70 79 72
216 235 248 253 245 237 248 262 273 280 278 276 275 260 210 212 265 290 297 302 315 326 332 353 4 5 40 48 24 3 345 337 338 341 334 324 342 3 4 0 352 339 337 355 15 17 13 18 18 10 7 13 12 5 0 0 1 359 359 3 8 11 10 9 8 7 9 12 13 11 10 16 19 19 25 33 37 41 47 48 48 49 51 55 56
240 256 262 262 250 244 256 268 280 283 279 271 270 275 264 225 192 17 357 333 325 1 8 24 31 29 40 48 26 1 348 347 350 349 340 328 332 2 10 8 4 1 8 27 39 37 29 28 25 16 12 14 11 9 6 2 1 2 1 1 5 7 7 5 5 7 13 16 15 12 11 14 17 18 22 31 38 42 47 50 51 49 49 51 53
252 264 270 264 245 237 253 268 269 267 273 274 275 285 289 283 277 99 90 78 91 87 55 46 48 39 31 33 26 6 354 355 360 358 357 3 7 13 20 17 13 22 39 43 42 40 32 30 29 19 13 13 10 8 6 1 359 2 3 3 3 3 4 7 8 10 15 17 15 14 14 15 18 19 20 26 34 41 47 50 52 51 48 47 46
258 271 272 262 251 241 247 257 256 254 267 277 278 285 291 288 283 243 171 179 175 118 88 66 55 43 32 32 31 20 11 14 19 17 19 32 20 351 4 13 13 27 44 47 43 41 33 28 27 17 9 10 7 2 2 2 360 358 359 359 1 360 2 9 13 12 13 15 15 13 14 16 19 20 19 20 26 34 40 44 47 48 47 43 41
261 265 259 252 255 254 250 253 258 262 270 276 279 287 292 297 302 270 220 219 237 224 152 113 70 54 51 47 40 32 24 21 23 23 26 39 43 25 19 14 10 22 38 43 42 43 37 31 26 17 10 10 8 3 2 1 360 358 356 356 358 359 360 6 11 10 9 11 13 12 13 16 17 17 18 20 22 24 28 33 39 45 46 42 40
260 262 254 239 242 250 251 252 262 276 279 278 275 307 338 1 9 10 193 216 258 231 170 155 144 116 79 53 38 31 24 20 24 27 28 36 47 45 37 30 25 28 36 40 40 42 41 36 29 22 18 16 11 8 7 4 2 1 359 358 1 2 1 2 6 8 7 8 9 9 12 15 15 14 15 16 18 19 20 21 28 37 41 42 43
264 276 283 261 244 240 232 214 176 142 133 142 153 125 95 78 78 94 105 70 8 28 144 150 164 164 91 36 13 359 5 19 34 38 35 37 44 46 44 44 44 42 40 39 39 39 37 34 30 26 23 19 15 13 12 9 6 4 3 3 6 6 6 6 7 6 6 7 7 8 10 12 14 16 15 12 12 14 13 12 16 20 25 32 40
268 294 302 263 228 214 203 186 159 150 159 160 143 127 118 110 106 100 86 60 38 32 49 67 55 25 18 8 349 322 308 333 12 26 30 33 39 47 54 54 48 43 38 34 33 32 28 26 24 21 18 16 14 14 11 7 5 4 2 1 2 5 8 9 8 6 6 7 7 7 9 10 12 16 16 13 11 10 10 11 13 13 11 15 24
248 262 245 193 176 195 208 191 168 164 167 157 140 135 134 125 110 89 70 59 46 30 25 30 28 21 9 355 344 328 308 313 5 12 21 31 36 45 56 54 44 39 34 27 22 22 22 22 21 19 16 11 7 8 8 5 3 3 2 2 3 6 7 7 6 5 5 5 3 4 6 7 9 13 15 13 11 10 10 11 13 13 9 6 9
249 242 188 167 165 176 185 184 183 175 164 150 136 133 131 119 108 109 110 108 91 45 7 352 3 10 3 360 8 12 16 50 45 25 30 46 47 47 53 52 43 36 29 23 19 19 21 23 23 20 17 12 8 7 6 4 3 4 6 7 6 6 6 7 7 6 4 2 0 1 3 4 5 8 11 10 9 11 13 12 12 13 10 5 6
248 199 133 157 177 176 169 169 162 142 131 124 117 116 115 107 114 179 206 196 152 86 338 319 340 358 4 35 57 59 63 75 71 54 54 61 60 53 50 47 40 32 26 22 20 19 21 23 22 19 18 16 12 10 9 7 7 7 8 9 8 6 5 7 7 5 3 1 359 359 360 2 5 6 7 6 7 12 16 15 12 13 11 10 15
222 181 168 167 165 153 141 137 130 123 121 123 121 118 124 142 185 231 250 257 256 247 247 261 312 338 19 79 84 80 76 70 66 64 67 69 66 58 51 47 39 30 23 21 21 20 19 18 16 17 19 16 13 14 14 11 10 9 8 9 9 6 4 4 5 4 4 2 360 358 358 0 4 6 5 5 7 11 16 17 16 14 12 12 17
164 152 143 134 132 133 133 134 135 133 132 136 144 154 174 197 217 239 259 263 249 242 230 206 210 242 334 79 83 82 80 78 78 85 91 88 73 57 51 50 43 32 25 23 21 18 17 17 16 17 20 19 17 19 19 16 14 13 12 10 8 6 5 4 3 3 2 360 359 359 359 1 3 4 3 4 7 9 13 16 17 16 13 13 18
150 139 135 125 121 130 138 143 150 153 150 152 166 184 206 230 252 274 285 277 252 241 238 225 212 215 227 220 131 108 108 107 107 114 125 117 92 65 52 46 34 23 20 23 24 18 14 16 19 20 23 23 22 23 24 23 22 21 17 13 10 7 4 1 359 357 356 354 354 358 1 2 4 4 2 2 5 9 12 15 16 15 14 15 20
158 155 156 152 150 158 164 168 176 179 180 187 194 200 212 235 260 261 260 258 247 238 243 244 227 206 214 221 206 179 169 158 150 161 156 131 208 285 305 346 1 0 6 17 24 23 19 21 26 30 31 29 27 28 29 30 30 27 23 19 15 7 1 0 360 354 350 350 353 356 358 360 4 8 6 2 4 8 11 13 14 13 12 13 16
171 177 176 174 179 187 188 190 194 197 205 212 216 218 220 224 233 244 247 243 236 232 232 230 220 211 213 217 217 216 215 204 198 202 194 208 262 283 317 5 14 10 16 18 22 28 33 34 36 40 39 34 32 33 32 31 33 30 23 21 20 13 9 14 14 0 350 351 354 354 356 359 2 6 7 6 7 10 11 11 14 13 11 11 11
197 216 212 205 209 218 225 225 220 223 231 237 254 274 254 222 216 241 250 237 227 228 225 220 219 220 220 220 222 225 220 209 207 209 193 184 216 276 19 31 14 8 32 33 26 33 44 45 42 46 47 42 39 40 37 34 34 30 20 19 21 17 14 21 24 9 0 6 4 355 355 1 2 3 6 7 8 11 13 11 11 12 11 10 9
249 247 244 240 234 235 241 243 241 244 245 245 259 275 261 221 190 220 241 232 225 227 228 222 218 220 222 220 214 211 211 210 209 203 174 144 142 91 49 26 337 6 57 58 41 37 43 45 43 45 48 46 46 48 45 38 35 29 19 18 22 20 15 20 26 20 18 23 13 356 355 4 5 4 6 7 7 10 12 10 9 10 11 11 10
238 236 232 230 232 237 241 238 234 236 238 236 238 248 247 233 216 220 227 225 224 225 224 218 215 216 220 221 212 204 203 202 196 185 161 132 128 122 112 115 137 82 68 64 52 43 42 43 42 43 46 47 49 54 54 47 39 28 18 16 23 26 21 22 29 32 35 36 25 5 358 4 6 6 8 8 7 8 9 7 5 7 11 13 13
220 235 237 229 228 236 242 241 242 246 246 241 237 237 238 235 229 223 219 220 223 222 219 216 214 212 211 211 208 201 194 191 189 177 157 142 139 140 137 138 141 135 111 84 64 47 39 41 40 39 42 46 47 54 59 53 37 25 18 17 23 28 26 27 36 42 43 41 31 13 1 2 7 9 10 9 7 7 7 5 2 2 8 13 13
242 254 259 254 251 255 256 253 254 259 260 255 249 245 240 237 237 232 222 217 217 216 213 215 216 212 204 198 192 192 193 193 194 185 162 151 149 148 145 146 146 144 143 129 94 64 49 45 38 35 39 44 50 56 53 35 15 13 18 20 22 24 24 28 38 48 48 43 33 16 3 4 8 10 11 11 7 4 4 3 2 2 6 9 10